Weather History for KARR - October, 2013

Change the Weather History Date:

Saturday, October 26, 2013

  Actual Average Record
Temperature  
Mean Temperature 41 °F 47 °F  
Max Temperature 56 °F 58 °F 75 °F (2000)
Min Temperature 26 °F 36 °F 26 °F (2013)
Degree Days  
Heating Degree Days 24 18  
Month to date heating degree days 353 360  
Since 1 July heating degree days 482 513  
Cooling Degree Days 0 0  
Month to date cooling degree days 14 9  
Year to date cooling degree days 745 656  
Moisture  
Dew Point 29 °F    
Average Humidity 62    
Maximum Humidity 85    
Minimum Humidity 38    
Precipitation  
Precipitation 0.00 in 0.11 in 0.66 in (2007)
Month to date precipitation 1.02 2.66  
Year to date precipitation 28.47 31.30  
Sea Level Pressure  
Sea Level Pressure 29.98 in    
Wind  
Wind Speed 12 mph (West)    
Max Wind Speed 23 mph    
Max Gust Speed 30 mph    
Visibility 10 miles    
Events      
T = Trace of Precipitation, MM = Missing Value Source: NWS Daily Summary

Daily Weather History Graph

Daily Weather History Graph

Search for Another Location

Airport or City:

Trip Planner

Search our weather history database for the weather conditions in past years. The results will help you decide how hot, cold, wet, or windy it might be!

Date:

Astronomy

Oct. 26, 2013 Rise Set
Actual Time 7:19 AM CDT 5:55 PM CDT
Civil Twilight 6:50 AM CDT 6:24 PM CDT
Nautical Twilight 6:18 AM CDT 6:56 PM CDT
Astronomical Twilight 5:45 AM CDT 7:29 PM CDT
Moon No Moon Rise 1:35 PM CDT (10/26)
Length of Visible Light 11h 33m
Length of Day
10h 36m
Waning Gibbous, 53% of the Moon is Illuminated
Oct 26
Waning Gibbous
Oct 26
Last Quarter
Nov 3
New
Nov 9
First Quarter
Nov 17
Full

Hourly Weather History & Observations

Time (CDT) Temp. Windchill Dew Point Humidity Pressure Visibility Wind Dir Wind Speed Gust Speed Precip Events Conditions
12:52 AM 42.1 °F 34.9 °F 27.0 °F 55% 30.06 in 10.0 mi SW 13.8 mph - N/A   Clear
1:52 AM 41.0 °F 34.3 °F 28.0 °F 60% 30.04 in 10.0 mi SSW 11.5 mph 17.3 mph N/A   Overcast
2:52 AM 42.1 °F 35.2 °F 28.0 °F 58% 29.98 in 10.0 mi SSW 12.7 mph 21.9 mph N/A   Overcast
3:52 AM 43.0 °F 35.4 °F 27.0 °F 53% 29.94 in 10.0 mi SSW 16.1 mph 23.0 mph N/A   Scattered Clouds
4:52 AM 44.1 °F 37.1 °F 28.0 °F 53% 29.91 in 10.0 mi SSW 15.0 mph 24.2 mph N/A   Overcast
5:52 AM 45.0 °F 37.9 °F 28.0 °F 52% 29.90 in 10.0 mi SW 16.1 mph 24.2 mph N/A   Overcast
6:52 AM 45.0 °F 38.2 °F 28.9 °F 53% 29.89 in 10.0 mi SW 15.0 mph 24.2 mph N/A   Overcast
7:52 AM 45.0 °F 37.6 °F 30.0 °F 56% 29.89 in 10.0 mi SW 17.3 mph 26.5 mph N/A   Overcast
8:52 AM 46.0 °F 39.6 °F 30.9 °F 56% 29.89 in 10.0 mi WSW 15.0 mph - N/A   Partly Cloudy
9:52 AM 50.0 °F - 33.1 °F 52% 29.88 in 10.0 mi West 17.3 mph - N/A   Clear
10:52 AM 51.1 °F - 35.1 °F 54% 29.90 in 10.0 mi WNW 17.3 mph - N/A   Clear
11:52 AM 52.0 °F - 35.1 °F 53% 29.91 in 10.0 mi WNW 19.6 mph - N/A   Partly Cloudy
12:52 PM 52.0 °F - 34.0 °F 50% 29.92 in 10.0 mi WNW 18.4 mph 25.3 mph N/A   Mostly Cloudy
1:52 PM 54.0 °F - 28.0 °F 37% 29.93 in 10.0 mi WNW 15.0 mph 24.2 mph N/A   Mostly Cloudy
2:52 PM 53.1 °F - 32.0 °F 45% 29.95 in 10.0 mi NW 18.4 mph - N/A   Overcast
3:52 PM 52.0 °F - 32.0 °F 47% 29.99 in 10.0 mi NW 12.7 mph - N/A   Mostly Cloudy
4:52 PM 50.0 °F - 30.0 °F 46% 30.01 in 10.0 mi NNW 12.7 mph - N/A   Overcast
5:52 PM 45.0 °F 41.2 °F 30.0 °F 56% 30.04 in 10.0 mi NW 6.9 mph - N/A   Clear
6:52 PM 37.9 °F 35.5 °F 28.9 °F 70% 30.06 in 10.0 mi WNW 3.5 mph - N/A   Clear
7:52 PM 30.9 °F 24.3 °F 26.1 °F 82% 30.09 in 10.0 mi WNW 6.9 mph - N/A   Clear
8:52 PM 30.9 °F 27.5 °F 25.0 °F 79% 30.09 in 10.0 mi NW 3.5 mph - N/A   Clear
9:52 PM 32.0 °F - 26.1 °F 79% 30.11 in 10.0 mi Calm Calm - N/A   Clear
10:52 PM 28.0 °F 24.2 °F 24.1 °F 85% 30.11 in 10.0 mi West 3.5 mph - N/A   Clear
11:52 PM 28.0 °F 24.2 °F 25.0 °F 88% 30.10 in 10.0 mi West 3.5 mph - N/A   Clear